SCP
0 0 0 0 1 0 0 1 1 1 0 0 0 0 0 0 0 0 0 0 0 0 0 1 1 1 1 1 2 2 2 2 2 2 1 1 0 0 0 0 0 -0 -0
0 0 0 0 0 0 0 0 1 1 1 1 0 0 0 0 0 1 0 0 0 0 0 1 1 1 1 1 2 2 2 2 2 2 2 1 0 0 0 0 0 -0 -0
0 0 1 0 1 1 1 2 1 1 1 0 1 1 1 1 0 0 1 0 0 0 0 1 1 1 1 1 2 2 2 2 3 3 3 2 1 0 0 0 0 0 0
0 0 0 0 1 1 1 0 1 1 1 0 1 0 1 1 1 0 0 0 1 0 0 1 1 1 1 1 2 2 2 2 2 2 2 1 1 0 0 0 0 0 0
-0 0 1 0 1 1 0 1 1 1 1 1 0 0 1 1 0 0 0 0 0 0 1 0 1 1 1 1 1 2 2 2 2 1 0 0 0 0 0 0 0 0 0
-0 0 1 1 0 1 0 1 1 1 1 1 1 -0 0 0 0 0 0 0 0 0 0 0 1 1 1 1 1 1 1 1 1 1 0 0 0 0 0 1 1 0 0
-0 0 1 1 0 0 0 0 1 2 2 1 1 1 0 0 0 0 0 0 0 0 0 0 0 1 1 1 1 1 1 1 0 0 0 0 0 0 0 1 1 1 0
0 -0 0 1 0 1 1 1 1 2 1 1 1 0 0 0 0 0 0 0 0 -1 -0 -0 1 1 1 1 0 0 0 0 0 0 0 0 0 0 1 1 1 1 1
0 0 0 0 0 0 0 1 1 1 1 0 0 0 0 0 0 0 -0 -0 -1 0 -0 0 0 0 0 0 0 0 0 0 0 0 0 0 0 0 0 0 0 0 0
0 0 0 0 0 0 0 0 0 0 0 0 0 -0 0 -0 0 -0 0 -0 -0 -0 -0 -0 -0 0 0 0 0 0 0 0 0 0 0 0 0 0 0 0 0 0 0
0 0 0 0 0 0 0 -0 0 0 0 0 -0 -0 0 -0 -0 0 -0 -0 0 -0 -0 -0 -0 0 0 0 0 0 0 0 0 0 0 0 0 0 0 0 0 0 0
0 0 0 0 0 -0 -0 0 0 0 0 0 0 -0 0 -0 0 0 0 0 0 -0 -0 -0 -0 -0 0 0 0 -0 -0 0 0 0 0 0 0 0 0 0 0 0 0
0 0 0 -0 0 0 0 0 0 0 0 0 0 0 1 1 0 0 -0 -0 -0 -0 0 0 0 0 -0 0 0 0 -0 0 0 0 0 0 0 0 0 1 0 0 0
-0 -0 0 -0 -0 0 0 0 -0 -0 0 0 0 0 0 0 0 0 0 0 0 -0 -0 0 0 -0 -0 0 0 -0 0 0 -0 0 0 0 0 0 0 0 0 0 0
0 0 0 0 -0 -0 0 0 0 -0 -0 -0 0 -0 -0 -0 -0 0 0 0 0 0 0 0 -0 0 -0 0 0 0 0 -0 -0 -0 0 0 0 0 0 0 0 0 0
0 -0 0 0 -0 0 0 0 0 0 -0 -0 -0 -0 -0 0 -0 0 0 0 0 0 0 0 -0 0 0 0 0 -0 -0 -0 -0 -0 -0 0 0 0 0 0 0 0 0
0 0 0 0 0 0 0 0 0 0 0 0 0 0 0 -0 0 0 0 0 0 0 -0 0 0 0 0 0 0 0 0 0 0 -0 -0 -0 -0 0 0 0 -0 -0 -0
0 0 0 0 0 0 0 0 0 0 0 0 0 -0 0 -0 0 0 0 0 0 0 0 0 -0 -0 0 0 1 1 0 -0 0 -0 -0 -0 -0 -0 0 -0 -0 -0 -0
0 0 0 0 0 0 0 0 0 0 0 -0 0 0 0 0 0 0 0 0 0 0 0 -0 0 0 0 0 0 0 0 -0 -0 0 0 0 0 0 0 -0 -0 -0 -0
0 0 0 0 0 0 0 0 0 -0 0 -0 -0 0 0 0 0 0 0 0 0 0 0 -0 -0 -0 -0 0 0 -0 -0 -0 -0 0 -0 -0 0 0 0 -0 -0 -0 -0
0 0 0 0 0 0 0 0 0 0 0 0 0 0 0 0 -0 0 0 0 0 0 -0 -0 -0 -0 -0 -0 -0 -0 -0 -0 -0 -0 -0 -0 -0 0 0 0 -0 -0 -0
1 1 1 0 0 0 0 0 0 1 0 0 0 0 0 0 0 0 0 0 0 0 0 0 0 0 -0 -0 -0 -0 -0 -0 -0 -0 -0 -0 -0 -0 0 0 0 -0 -0
1 1 1 0 0 0 0 0 0 0 1 0 0 1 1 0 0 0 0 0 0 0 0 0 0 0 0 0 0 -0 -0 -0 -0 0 0 0 0 0 0 -0 0 0 0
3 2 2 0 0 0 0 0 0 0 1 1 1 0 0 0 0 0 0 0 0 0 0 0 0 0 0 0 0 0 0 0 0 0 0 -0 0 -0 -0 -0 -0 -0 0
2 0 0 0 0 0 0 0 0 0 2 0 0 0 0 0 0 0 0 0 0 0 0 0 0 0 0 0 0 0 0 0 0 0 0 0 -0 -0 -0 0 0 0 0
0 0 0 0 0 0 0 0 0 0 1 0 0 0 0 0 0 0 0 0 0 0 0 0 0 0 0 0 0 0 0 0 0 0 0 -0 0 -0 -0 0 0 0 0
Wind_Speed_500mb
16 22 15 20 18 28 17 22 24 19 19 16 23 21 18 24 11 20 37 38 37 38 41 43 43 41 38 36 36 37 38 37 39 42 41 37 25 17 11 6 10 25 28
25 24 29 23 18 15 16 25 23 19 11 17 15 21 16 16 24 11 9 21 38 45 46 52 57 46 38 36 37 39 39 40 40 43 44 41 24 13 10 4 4 14 27
26 12 26 27 17 22 23 24 16 12 12 13 21 10 22 9 26 22 5 12 11 28 36 39 45 49 42 36 39 44 46 45 44 49 51 42 22 7 4 3 2 5 25
20 10 29 25 19 18 12 11 12 10 12 6 9 12 8 5 17 20 17 11 11 18 32 30 27 40 50 47 44 45 48 49 49 55 59 43 25 12 6 9 8 10 24
9 6 17 25 16 15 13 18 10 10 8 4 10 15 12 6 11 0 15 10 10 24 33 30 26 29 41 47 50 47 49 53 54 61 64 49 31 20 19 17 16 17 23
6 18 8 13 7 19 9 18 14 14 9 7 8 2 4 5 7 6 4 16 23 7 14 23 30 28 29 42 47 45 49 52 57 63 65 52 38 28 26 23 24 23 22
3 8 15 8 6 24 14 14 3 10 8 4 4 7 8 14 11 4 16 2 12 6 14 14 37 20 28 35 41 43 46 50 56 62 65 53 41 31 27 25 26 25 22
15 8 6 5 16 13 12 7 10 14 9 8 13 2 16 18 11 13 11 6 10 21 16 6 24 34 23 26 37 40 42 49 54 57 61 54 42 33 27 26 25 24 24
9 14 9 13 9 3 6 9 3 12 16 9 14 18 17 14 39 19 8 21 14 13 15 11 21 30 17 26 39 39 44 49 53 53 55 55 42 34 28 26 26 24 21
12 10 6 8 6 5 2 10 9 8 14 18 5 17 15 25 12 28 19 38 5 17 48 11 21 24 22 33 39 46 44 49 51 50 49 51 45 34 28 23 22 22 21
22 10 10 9 20 8 14 22 14 6 14 22 11 13 19 10 12 32 17 53 34 32 85 12 24 8 25 36 40 51 46 49 48 47 43 44 46 35 26 19 18 16 17
16 20 17 17 18 16 5 17 8 2 5 11 8 16 21 20 10 21 17 46 10 24 58 27 34 14 27 35 41 48 43 50 46 43 37 39 41 41 29 19 14 13 11
22 19 21 20 12 13 8 8 11 5 3 2 4 5 18 22 19 25 32 19 30 32 27 27 33 25 35 34 31 37 37 41 47 45 35 35 33 37 37 26 15 11 7
27 28 21 20 20 14 15 13 10 7 17 14 10 8 6 16 20 16 23 30 28 6 13 17 25 36 51 45 30 39 28 34 40 48 37 34 30 30 32 31 24 12 8
15 25 22 24 22 18 15 15 13 14 19 11 11 21 19 15 18 19 21 22 27 27 33 33 22 41 45 37 39 27 27 27 28 39 49 38 33 32 30 28 27 22 11
9 24 16 21 20 22 22 22 15 16 22 26 12 16 21 28 14 8 16 19 20 27 18 31 27 27 42 29 39 40 25 30 25 36 43 46 38 37 35 32 26 23 21
27 21 26 23 23 24 19 20 20 21 16 14 25 22 20 23 23 22 25 24 26 31 33 24 23 23 20 23 38 37 41 32 35 34 39 38 42 42 41 37 34 30 22
34 26 27 30 25 23 20 24 21 17 22 20 16 15 18 16 20 19 23 18 13 19 25 23 26 17 24 28 32 33 31 36 41 28 36 36 37 40 40 37 35 35 29
35 37 35 36 32 25 23 21 19 17 19 17 18 17 19 17 20 19 20 20 18 19 16 23 31 38 36 17 22 24 27 27 28 34 35 40 33 42 36 37 30 30 32
29 31 26 27 31 26 26 27 29 17 25 15 18 20 17 19 20 22 21 13 16 16 15 25 25 31 19 22 24 27 26 27 32 25 27 25 33 33 30 40 30 24 29
27 31 31 26 28 21 24 21 23 26 16 22 25 15 18 21 18 23 26 27 25 25 24 28 26 23 31 42 34 31 33 37 40 30 30 28 29 19 30 26 31 28 36
30 28 25 20 19 26 24 23 24 20 22 22 19 15 16 22 25 21 14 13 15 21 23 25 27 27 31 36 37 35 40 45 54 46 43 22 29 24 27 29 34 40 38
31 32 32 28 35 34 29 25 29 29 29 20 15 18 20 23 15 22 21 18 17 15 20 25 32 34 38 30 38 45 46 49 48 40 31 43 36 28 27 38 32 28 37
36 36 36 40 39 36 33 31 31 29 25 32 31 26 24 30 29 29 28 32 33 31 30 31 31 37 40 43 43 43 43 39 38 34 32 40 37 37 38 39 38 36 33
31 36 38 38 35 35 33 31 27 24 24 28 29 30 32 32 31 31 34 36 35 33 36 36 37 37 36 31 26 24 27 31 32 31 26 33 44 49 49 40 22 32 28
31 39 38 33 31 29 18 13 17 19 9 3 9 11 9 11 12 14 15 17 17 18 20 18 14 15 20 25 24 18 21 23 26 36 38 47 47 49 49 29 34 30 35
Wind_Direction_500mb
109 145 112 122 112 70 87 94 102 89 93 91 110 90 106 119 76 60 64 66 65 63 60 52 43 37 33 30 27 22 17 12 4 0 358 353 340 320 319 317 258 223 213
129 154 97 83 86 79 79 107 102 113 93 85 93 109 101 107 131 119 49 45 61 60 62 57 46 40 36 32 26 21 15 8 2 0 356 351 343 310 297 308 291 218 203
101 96 88 104 87 53 72 61 88 102 99 96 80 114 85 86 112 109 125 28 36 53 41 43 48 43 42 36 29 21 16 11 5 1 0 360 359 319 273 29 348 192 188
97 7 117 111 101 112 63 74 106 122 132 127 100 110 141 55 83 78 99 72 41 47 20 18 37 43 41 37 31 23 16 14 12 7 7 11 18 38 110 93 80 140 168
30 106 98 129 94 83 142 110 104 114 70 154 119 74 113 249 148 95 106 93 79 64 41 36 35 29 33 35 25 24 19 17 17 14 16 23 37 65 96 86 83 125 151
48 119 136 99 79 98 101 110 104 97 69 54 52 132 82 117 135 261 154 87 111 112 86 35 38 24 20 28 21 22 22 21 21 19 22 31 47 74 87 84 85 112 139
179 154 113 353 26 72 135 144 33 356 59 3 130 197 170 132 167 54 108 21 152 144 63 63 66 47 19 25 15 22 26 24 25 23 25 36 52 70 77 84 87 100 123
156 161 193 116 69 55 36 58 35 54 75 315 314 285 242 207 142 119 66 330 22 122 93 63 46 61 54 23 21 27 29 28 26 26 28 35 50 63 69 84 90 101 113
198 117 145 136 25 227 74 344 311 82 72 359 352 22 49 337 332 143 65 345 14 350 28 296 91 54 38 16 27 32 29 28 25 28 31 33 41 57 65 82 91 99 102
208 231 166 157 107 80 213 285 272 88 47 26 303 352 47 155 232 321 310 334 233 95 358 330 66 40 15 10 22 28 26 23 21 24 32 34 39 49 66 75 87 98 92
204 204 234 212 171 193 234 249 224 115 55 45 235 23 348 37 143 147 281 9 286 319 354 64 123 35 21 6 10 15 20 19 17 22 29 34 38 45 55 69 75 88 97
219 204 228 229 218 244 198 246 229 188 26 95 206 44 26 31 5 3 179 185 140 343 346 14 350 35 65 18 359 8 17 15 18 22 29 33 38 42 46 53 70 82 82
228 231 218 242 246 227 222 241 284 263 306 170 197 52 71 47 12 7 29 132 69 39 37 340 27 39 31 15 9 4 11 13 20 22 31 31 38 40 40 44 52 68 87
201 227 225 227 202 231 257 233 256 301 296 297 293 317 31 51 2 13 29 9 16 44 3 324 23 34 11 0 352 358 6 19 14 20 28 32 34 35 38 35 37 42 35
204 214 226 203 208 209 231 247 230 268 284 330 327 330 302 330 11 6 356 347 359 6 355 10 19 357 2 359 360 19 43 15 9 19 21 17 25 27 24 25 24 26 23
232 178 199 205 203 222 239 241 208 276 277 269 263 308 289 290 301 340 338 20 12 19 14 350 331 342 334 357 10 30 27 6 13 6 10 16 12 11 13 15 10 11 14
198 231 213 208 217 220 239 259 227 241 239 270 259 290 308 319 319 287 304 334 343 348 350 354 14 342 338 335 9 20 32 14 4 352 357 3 5 11 14 9 8 1 354
198 205 216 202 211 223 231 250 264 235 275 294 314 306 312 311 296 322 323 312 355 340 336 345 331 353 347 354 354 7 17 14 354 348 359 346 349 1 357 358 1 3 357
213 214 216 203 202 206 227 244 256 253 246 266 283 289 288 299 306 299 305 303 309 317 333 337 344 348 9 12 332 15 24 3 353 353 345 341 331 349 349 338 341 355 359
218 206 214 212 209 210 224 235 243 248 252 247 268 281 289 289 295 294 311 302 307 323 336 313 328 354 356 358 17 357 355 333 330 349 350 337 342 336 332 334 334 335 347
216 208 215 225 220 212 231 230 231 246 257 264 241 266 285 274 265 286 300 306 305 305 303 310 317 307 322 329 342 324 317 312 317 324 312 313 320 337 343 331 324 329 334
221 209 211 201 220 226 237 230 223 223 232 247 237 252 262 291 290 292 298 318 311 324 330 331 325 320 307 308 310 319 318 320 325 335 326 318 332 316 340 353 345 330 324
213 216 212 216 215 219 231 237 233 233 244 271 296 247 241 257 295 264 284 298 294 305 303 305 300 301 308 314 312 317 318 318 319 333 337 326 333 334 330 312 312 322 334
211 217 210 216 225 234 236 240 241 246 246 249 257 268 267 262 276 278 278 282 283 288 289 288 293 296 300 308 311 315 321 319 322 325 320 312 322 313 302 304 316 323 327
203 208 215 221 222 230 240 246 248 241 241 254 255 258 260 265 275 281 286 290 291 284 285 289 295 307 311 314 323 323 324 324 330 337 336 329 324 315 313 322 301 304 306
200 212 213 214 220 231 234 226 202 191 169 233 8 332 286 270 282 298 315 325 329 328 330 339 359 22 12 347 321 301 316 336 340 333 324 318 317 321 324 325 318 307 305
Wind_Speed_850mb
16 22 15 20 18 28 17 22 24 19 19 16 23 21 18 24 11 20 37 38 37 38 41 43 43 41 38 36 36 37 38 37 39 42 41 37 25 17 11 6 10 25 28
25 24 29 23 18 15 16 25 23 19 11 17 15 21 16 16 24 11 9 21 38 45 46 52 57 46 38 36 37 39 39 40 40 43 44 41 24 13 10 4 4 14 27
26 12 26 27 17 22 23 24 16 12 12 13 21 10 22 9 26 22 5 12 11 28 36 39 45 49 42 36 39 44 46 45 44 49 51 42 22 7 4 3 2 5 25
20 10 29 25 19 18 12 11 12 10 12 6 9 12 8 5 17 20 17 11 11 18 32 30 27 40 50 47 44 45 48 49 49 55 59 43 25 12 6 9 8 10 24
9 6 17 25 16 15 13 18 10 10 8 4 10 15 12 6 11 0 15 10 10 24 33 30 26 29 41 47 50 47 49 53 54 61 64 49 31 20 19 17 16 17 23
6 18 8 13 7 19 9 18 14 14 9 7 8 2 4 5 7 6 4 16 23 7 14 23 30 28 29 42 47 45 49 52 57 63 65 52 38 28 26 23 24 23 22
3 8 15 8 6 24 14 14 3 10 8 4 4 7 8 14 11 4 16 2 12 6 14 14 37 20 28 35 41 43 46 50 56 62 65 53 41 31 27 25 26 25 22
15 8 6 5 16 13 12 7 10 14 9 8 13 2 16 18 11 13 11 6 10 21 16 6 24 34 23 26 37 40 42 49 54 57 61 54 42 33 27 26 25 24 24
9 14 9 13 9 3 6 9 3 12 16 9 14 18 17 14 39 19 8 21 14 13 15 11 21 30 17 26 39 39 44 49 53 53 55 55 42 34 28 26 26 24 21
12 10 6 8 6 5 2 10 9 8 14 18 5 17 15 25 12 28 19 38 5 17 48 11 21 24 22 33 39 46 44 49 51 50 49 51 45 34 28 23 22 22 21
22 10 10 9 20 8 14 22 14 6 14 22 11 13 19 10 12 32 17 53 34 32 85 12 24 8 25 36 40 51 46 49 48 47 43 44 46 35 26 19 18 16 17
16 20 17 17 18 16 5 17 8 2 5 11 8 16 21 20 10 21 17 46 10 24 58 27 34 14 27 35 41 48 43 50 46 43 37 39 41 41 29 19 14 13 11
22 19 21 20 12 13 8 8 11 5 3 2 4 5 18 22 19 25 32 19 30 32 27 27 33 25 35 34 31 37 37 41 47 45 35 35 33 37 37 26 15 11 7
27 28 21 20 20 14 15 13 10 7 17 14 10 8 6 16 20 16 23 30 28 6 13 17 25 36 51 45 30 39 28 34 40 48 37 34 30 30 32 31 24 12 8
15 25 22 24 22 18 15 15 13 14 19 11 11 21 19 15 18 19 21 22 27 27 33 33 22 41 45 37 39 27 27 27 28 39 49 38 33 32 30 28 27 22 11
9 24 16 21 20 22 22 22 15 16 22 26 12 16 21 28 14 8 16 19 20 27 18 31 27 27 42 29 39 40 25 30 25 36 43 46 38 37 35 32 26 23 21
27 21 26 23 23 24 19 20 20 21 16 14 25 22 20 23 23 22 25 24 26 31 33 24 23 23 20 23 38 37 41 32 35 34 39 38 42 42 41 37 34 30 22
34 26 27 30 25 23 20 24 21 17 22 20 16 15 18 16 20 19 23 18 13 19 25 23 26 17 24 28 32 33 31 36 41 28 36 36 37 40 40 37 35 35 29
35 37 35 36 32 25 23 21 19 17 19 17 18 17 19 17 20 19 20 20 18 19 16 23 31 38 36 17 22 24 27 27 28 34 35 40 33 42 36 37 30 30 32
29 31 26 27 31 26 26 27 29 17 25 15 18 20 17 19 20 22 21 13 16 16 15 25 25 31 19 22 24 27 26 27 32 25 27 25 33 33 30 40 30 24 29
27 31 31 26 28 21 24 21 23 26 16 22 25 15 18 21 18 23 26 27 25 25 24 28 26 23 31 42 34 31 33 37 40 30 30 28 29 19 30 26 31 28 36
30 28 25 20 19 26 24 23 24 20 22 22 19 15 16 22 25 21 14 13 15 21 23 25 27 27 31 36 37 35 40 45 54 46 43 22 29 24 27 29 34 40 38
31 32 32 28 35 34 29 25 29 29 29 20 15 18 20 23 15 22 21 18 17 15 20 25 32 34 38 30 38 45 46 49 48 40 31 43 36 28 27 38 32 28 37
36 36 36 40 39 36 33 31 31 29 25 32 31 26 24 30 29 29 28 32 33 31 30 31 31 37 40 43 43 43 43 39 38 34 32 40 37 37 38 39 38 36 33
31 36 38 38 35 35 33 31 27 24 24 28 29 30 32 32 31 31 34 36 35 33 36 36 37 37 36 31 26 24 27 31 32 31 26 33 44 49 49 40 22 32 28
31 39 38 33 31 29 18 13 17 19 9 3 9 11 9 11 12 14 15 17 17 18 20 18 14 15 20 25 24 18 21 23 26 36 38 47 47 49 49 29 34 30 35
Wind_Direction_850mb
109 145 112 122 112 70 87 94 102 89 93 91 110 90 106 119 76 60 64 66 65 63 60 52 43 37 33 30 27 22 17 12 4 0 358 353 340 320 319 317 258 223 213
129 154 97 83 86 79 79 107 102 113 93 85 93 109 101 107 131 119 49 45 61 60 62 57 46 40 36 32 26 21 15 8 2 0 356 351 343 310 297 308 291 218 203
101 96 88 104 87 53 72 61 88 102 99 96 80 114 85 86 112 109 125 28 36 53 41 43 48 43 42 36 29 21 16 11 5 1 0 360 359 319 273 29 348 192 188
97 7 117 111 101 112 63 74 106 122 132 127 100 110 141 55 83 78 99 72 41 47 20 18 37 43 41 37 31 23 16 14 12 7 7 11 18 38 110 93 80 140 168
30 106 98 129 94 83 142 110 104 114 70 154 119 74 113 249 148 95 106 93 79 64 41 36 35 29 33 35 25 24 19 17 17 14 16 23 37 65 96 86 83 125 151
48 119 136 99 79 98 101 110 104 97 69 54 52 132 82 117 135 261 154 87 111 112 86 35 38 24 20 28 21 22 22 21 21 19 22 31 47 74 87 84 85 112 139
179 154 113 353 26 72 135 144 33 356 59 3 130 197 170 132 167 54 108 21 152 144 63 63 66 47 19 25 15 22 26 24 25 23 25 36 52 70 77 84 87 100 123
156 161 193 116 69 55 36 58 35 54 75 315 314 285 242 207 142 119 66 330 22 122 93 63 46 61 54 23 21 27 29 28 26 26 28 35 50 63 69 84 90 101 113
198 117 145 136 25 227 74 344 311 82 72 359 352 22 49 337 332 143 65 345 14 350 28 296 91 54 38 16 27 32 29 28 25 28 31 33 41 57 65 82 91 99 102
208 231 166 157 107 80 213 285 272 88 47 26 303 352 47 155 232 321 310 334 233 95 358 330 66 40 15 10 22 28 26 23 21 24 32 34 39 49 66 75 87 98 92
204 204 234 212 171 193 234 249 224 115 55 45 235 23 348 37 143 147 281 9 286 319 354 64 123 35 21 6 10 15 20 19 17 22 29 34 38 45 55 69 75 88 97
219 204 228 229 218 244 198 246 229 188 26 95 206 44 26 31 5 3 179 185 140 343 346 14 350 35 65 18 359 8 17 15 18 22 29 33 38 42 46 53 70 82 82
228 231 218 242 246 227 222 241 284 263 306 170 197 52 71 47 12 7 29 132 69 39 37 340 27 39 31 15 9 4 11 13 20 22 31 31 38 40 40 44 52 68 87
201 227 225 227 202 231 257 233 256 301 296 297 293 317 31 51 2 13 29 9 16 44 3 324 23 34 11 0 352 358 6 19 14 20 28 32 34 35 38 35 37 42 35
204 214 226 203 208 209 231 247 230 268 284 330 327 330 302 330 11 6 356 347 359 6 355 10 19 357 2 359 360 19 43 15 9 19 21 17 25 27 24 25 24 26 23
232 178 199 205 203 222 239 241 208 276 277 269 263 308 289 290 301 340 338 20 12 19 14 350 331 342 334 357 10 30 27 6 13 6 10 16 12 11 13 15 10 11 14
198 231 213 208 217 220 239 259 227 241 239 270 259 290 308 319 319 287 304 334 343 348 350 354 14 342 338 335 9 20 32 14 4 352 357 3 5 11 14 9 8 1 354
198 205 216 202 211 223 231 250 264 235 275 294 314 306 312 311 296 322 323 312 355 340 336 345 331 353 347 354 354 7 17 14 354 348 359 346 349 1 357 358 1 3 357
213 214 216 203 202 206 227 244 256 253 246 266 283 289 288 299 306 299 305 303 309 317 333 337 344 348 9 12 332 15 24 3 353 353 345 341 331 349 349 338 341 355 359
218 206 214 212 209 210 224 235 243 248 252 247 268 281 289 289 295 294 311 302 307 323 336 313 328 354 356 358 17 357 355 333 330 349 350 337 342 336 332 334 334 335 347
216 208 215 225 220 212 231 230 231 246 257 264 241 266 285 274 265 286 300 306 305 305 303 310 317 307 322 329 342 324 317 312 317 324 312 313 320 337 343 331 324 329 334
221 209 211 201 220 226 237 230 223 223 232 247 237 252 262 291 290 292 298 318 311 324 330 331 325 320 307 308 310 319 318 320 325 335 326 318 332 316 340 353 345 330 324
213 216 212 216 215 219 231 237 233 233 244 271 296 247 241 257 295 264 284 298 294 305 303 305 300 301 308 314 312 317 318 318 319 333 337 326 333 334 330 312 312 322 334
211 217 210 216 225 234 236 240 241 246 246 249 257 268 267 262 276 278 278 282 283 288 289 288 293 296 300 308 311 315 321 319 322 325 320 312 322 313 302 304 316 323 327
203 208 215 221 222 230 240 246 248 241 241 254 255 258 260 265 275 281 286 290 291 284 285 289 295 307 311 314 323 323 324 324 330 337 336 329 324 315 313 322 301 304 306
200 212 213 214 220 231 234 226 202 191 169 233 8 332 286 270 282 298 315 325 329 328 330 339 359 22 12 347 321 301 316 336 340 333 324 318 317 321 324 325 318 307 305